Voltar ao catálogo

COSMOS 1579 COOLANT

LostLEO
NORAD 28273·DEBRIS·🇷🇺 Russia

Lançado Jun 29, 1984 de Baikonur Cosmodrome

Loading…

Próximas Passagens (próximas 24 horas)

TLE

ObsoletoSource: Space-Track

Época: Oct 16, 2022, 22:53 UTC

1 28273U 84069AJ  22289.95411315  .00000145  00000-0  18526-3 0  9996
2 28273  65.0511 120.2440 0031698 116.5061 243.9260 13.91405966946618

Acompanhe COSMOS 1579 COOLANT em tempo real com AllMySat

Download on the App Store